TELKOM 3S

Last updated on Thu Oct 30 2025 00:02:50 GMT+0000 (Coordinated Universal Time)

1 41944U 17007A 25302.53447080 -.00000353 00000+0 00000+0 0 9990 2 41944 0.0100 233.1230 0002610 358.9559 116.4804 1.00270485 31827
UTC large
Height (km)
Speed (km/s)
/
Latitude / Longitude
Inclination (degrees)
Orbital Period (minutes)
Azimuth
Elevation
Range (km)
Doppler Factor

Next 0 passes for location: London (51.5072 / 0.1276)

Sorry there are no passes over London.